Location: Czekanka
(50.4925°N, 19.2643°E)
Time: 13:35:51
(UTC+00:00)

Cosmos 921 Rocket - Pass Details

Date: 15 June 2024
Orbit: 568 x 625 km, 75.8° (Epoch: 15 July)

Event Time Altitude Azimuth Distance (km) Brightness Sun altitude
Rises 00:40:31 0° 342° (NNW) 2,835 7.2 -11.8°
Reaches altitude 10° 00:42:49 10° 347° (NNW) 1,920 6.3 -11.6°
Maximum altitude 00:46:59 52° 64° (ENE) 731 3.8 -11.3°
Drops below altitude 10° 00:51:04 10° 142° (SE) 1,879 5.3 -11.0°
Sets 00:53:17 0° 147° (SSE) 2,767 6.1 -10.8°
